TimePST,TemperatureF,Dew PointF,Humidity,Sea Level PressureIn,VisibilityMPH,Wind Direction,Wind SpeedMPH,Gust SpeedMPH,PrecipitationIn,Events,Conditions,WindDirDegrees,DateUTC
12:53 AM,44.1,41.0,89,29.57,10.0,NW,4.6,-,0.00,,Overcast,320,2013-03-06 08:53:00
1:53 AM,42.1,39.9,92,29.54,10.0,Calm,Calm,-,N/A,,Mostly Cloudy,0,2013-03-06 09:53:00
2:53 AM,43.0,39.9,89,29.55,10.0,Calm,Calm,-,0.01,Rain,Light Rain,0,2013-03-06 10:53:00
3:53 AM,41.0,39.0,93,29.54,10.0,NE,4.6,-,0.02,,Scattered Clouds,40,2013-03-06 11:53:00
4:46 AM,42.8,39.2,87,29.56,10.0,NNW,3.5,-,N/A,,Overcast,340,2013-03-06 12:46:00
4:53 AM,42.1,39.0,89,29.57,10.0,NNW,4.6,-,N/A,,Overcast,340,2013-03-06 12:53:00
5:53 AM,41.0,37.9,89,29.57,10.0,North,4.6,-,0.00,Rain,Light Rain,360,2013-03-06 13:53:00
6:53 AM,41.0,37.9,89,29.59,10.0,West,3.5,-,0.00,,Overcast,270,2013-03-06 14:53:00
7:53 AM,41.0,37.9,89,29.65,10.0,West,9.2,-,0.01,,Overcast,280,2013-03-06 15:53:00
7:57 AM,41.0,37.4,87,29.64,10.0,WNW,8.1,-,0.00,Rain,Light Rain,290,2013-03-06 15:57:00
8:53 AM,42.1,36.0,79,29.70,10.0,SW,12.7,-,0.02,,Overcast,220,2013-03-06 16:53:00
9:53 AM,44.1,35.1,71,29.75,10.0,SW,9.2,-,N/A,,Overcast,230,2013-03-06 17:53:00
10:53 AM,46.0,35.1,66,29.79,10.0,WSW,6.9,-,N/A,,Overcast,250,2013-03-06 18:53:00
11:21 AM,44.6,35.6,71,29.81,8.0,West,11.5,-,0.00,Rain,Light Rain,270,2013-03-06 19:21:00
11:29 AM,44.6,35.6,71,29.81,10.0,West,11.5,-,0.00,Rain,Light Rain,270,2013-03-06 19:29:00
11:53 AM,46.0,36.0,68,29.83,10.0,SW,8.1,-,0.00,,Mostly Cloudy,220,2013-03-06 19:53:00
12:53 PM,46.9,32.0,56,29.84,10.0,NW,6.9,-,0.01,Rain,Light Rain,310,2013-03-06 20:53:00
1:53 PM,48.0,35.1,61,29.86,10.0,West,8.1,-,0.04,,Mostly Cloudy,270,2013-03-06 21:53:00
2:53 PM,51.1,32.0,48,29.87,10.0,WSW,15.0,-,0.01,,Mostly Cloudy,250,2013-03-06 22:53:00
3:53 PM,46.9,33.1,59,29.90,10.0,West,8.1,-,0.00,,Mostly Cloudy,280,2013-03-06 23:53:00
4:53 PM,48.0,28.0,46,29.90,10.0,SW,8.1,-,N/A,,Mostly Cloudy,220,2013-03-07 00:53:00
5:53 PM,45.0,32.0,60,29.91,10.0,NW,4.6,-,N/A,,Mostly Cloudy,310,2013-03-07 01:53:00
6:53 PM,43.0,33.1,68,29.94,10.0,NW,3.5,-,N/A,,Scattered Clouds,310,2013-03-07 02:53:00
7:53 PM,43.0,33.1,68,29.95,10.0,North,5.8,-,N/A,,Overcast,350,2013-03-07 03:53:00
8:53 PM,42.1,33.1,70,29.96,10.0,NNW,4.6,-,N/A,,Mostly Cloudy,330,2013-03-07 04:53:00
9:53 PM,41.0,33.1,73,29.98,10.0,NW,3.5,-,N/A,,Mostly Cloudy,310,2013-03-07 05:53:00
10:53 PM,39.0,34.0,82,29.99,10.0,Calm,Calm,-,N/A,,Overcast,0,2013-03-07 06:53:00
11:53 PM,37.9,33.1,83,29.99,10.0,Calm,Calm,-,N/A,,Partly Cloudy,0,2013-03-07 07:53:00